Home > Time Zones > World Clock > Weather > U.S.A. > Gary > Past weeks

Flag for U.S.A. Weather past 2 weeks in Gary, Indiana, U.S.A.

41 °F

Rain. Low clouds.

Feels Like: 33 °F
Forecast: 39 / 56 °F
Wind: 15 mph from Northeast

Location: Lansing Municipal Airport

Current Time: Nov 27, 2015 at 11:47:37 AM

Latest Report: Nov 27, 2015 at 11:15 AM

Visibility: 4 mi

Pressure: 30.34 "Hg

Humidity: 97%

Dew point: 40 °F

Location of GaryLocation

Historic Weather in Gary — Graph


Gary temperature yesterday

Maximum temperature yesterday: 61 °F (at 1:55 PM)
Minimum temperature yesterday: 49 °F (at 12:15 AM)
Average temperature yesterday: 55 °F

Past Weeks' High & Low Weather Summary

High64 °F (Nov 15, 1:55 PM)100% (Nov 24, 8:55 AM)30.36 "Hg (Nov 24, 8:55 AM)
Low8 °F (Nov 22, 6:35 AM)26% (Nov 20, 11:35 AM)29.49 "Hg (Nov 18, 12:35 PM)
Average42 °F72%30.09 "Hg
* Reported Nov 12 10:15 AM — Nov 27 10:55 AM, Gary, Weather by CustomWeather, © 2015

Note: Actual official high and low records may vary slightly from our data, if they occured in-between our weather recording intervals... More about our weather records


Gary weather history for previous 24 hours

Time TempWeatherWind HumidityBarometerVisibility
10:55 AM
Fri, Nov 27
41 °FLight rain. Low clouds.12 mph97%30.36 "Hg4 mi
10:35 AM41 °FLight rain. Low clouds.12 mph97%30.34 "Hg4 mi
10:15 AM41 °FDrizzle. Low clouds.15 mph96%30.35 "Hg5 mi
9:55 AM41 °FDrizzle. Low clouds.12 mph97%30.34 "Hg5 mi
9:35 AM41 °FRain. Low clouds.13 mph97%30.34 "Hg5 mi
9:15 AM41 °FRain. Low clouds.12 mph97%30.34 "Hg5 mi
8:55 AM41 °FRain. Low clouds.14 mph97%30.34 "Hg4 mi
8:35 AM41 °FRain. Mostly cloudy.13 mph96%30.32 "Hg5 mi
8:15 AM41 °FLight rain. Low clouds.14 mph97%30.32 "Hg5 mi
7:55 AM40 °FLight rain. Low clouds.17 mph96%30.32 "Hg4 mi
7:35 AM41 °FLight rain. Low clouds.12 mph96%30.30 "Hg4 mi
7:15 AM41 °FRain. Low clouds.15 mph96%30.29 "Hg5 mi
6:55 AM41 °FRain. Mostly cloudy.17 mph95%30.29 "Hg7 mi
6:35 AM42 °FRain. Mostly cloudy.13 mph96%30.27 "Hg7 mi
6:15 AM43 °FRain. Low clouds.15 mph96%30.26 "Hg7 mi
5:55 AM44 °FHeavy rain. Low clouds.9 mph97%30.24 "Hg5 mi
5:15 AM55 °FRain. Low clouds.5 mph95%30.20 "Hg7 mi
4:55 AM55 °FRain. Overcast.9 mph96%30.19 "Hg10 mi
4:35 AM54 °FRain. Mostly cloudy.10 mph97%30.19 "Hg7 mi
4:15 AM55 °FRain. Overcast.9 mph97%30.19 "Hg7 mi
3:55 AM55 °FHeavy rain. Overcast.12 mph96%30.19 "Hg7 mi
3:35 AM55 °FHeavy rain. Mostly cloudy.15 mph93%30.19 "Hg7 mi
3:15 AM56 °FRain. Overcast.18 mph92%30.17 "Hg5 mi
2:55 AM56 °FRain. Mostly cloudy.20 mph91%30.15 "Hg7 mi
2:35 AM55 °FRain. Overcast.18 mph94%30.15 "Hg7 mi
2:15 AM56 °FRain. Mostly cloudy.17 mph92%30.15 "Hg5 mi
1:55 AM56 °FRain. Mostly cloudy.21 mph91%30.16 "Hg7 mi
1:35 AM56 °FRain. Overcast.21 mph90%30.16 "Hg10 mi
12:55 AM56 °FRain. Overcast.20 mph87%30.17 "Hg7 mi
12:15 AM56 °FHeavy rain. Overcast.14 mph84%30.18 "Hg7 mi
11:55 PM
Thu, Nov 26
56 °FLight rain. Mostly cloudy.10 mph84%30.18 "Hg7 mi
11:35 PM56 °FLight rain. Overcast.13 mph82%30.19 "Hg10 mi
10:55 PM57 °FMostly cloudy.16 mph75%30.19 "Hg10 mi
9:55 PM58 °FMostly cloudy.18 mph73%30.21 "Hg10 mi
9:15 PM58 °FMostly cloudy.21 mph72%30.21 "Hg10 mi
8:55 PM58 °FMostly cloudy.20 mph74%30.21 "Hg10 mi
8:35 PM58 °FMostly cloudy.20 mph75%30.21 "Hg10 mi
8:15 PM57 °FMostly cloudy.21 mph75%30.20 "Hg10 mi
7:55 PM58 °FOvercast.20 mph76%30.20 "Hg10 mi
7:35 PM58 °FMostly cloudy.22 mph75%30.21 "Hg10 mi
7:15 PM58 °FMostly cloudy.22 mph76%30.21 "Hg10 mi
6:55 PM58 °FOvercast.18 mph77%30.21 "Hg10 mi
6:15 PM58 °FOvercast.16 mph78%30.20 "Hg10 mi
5:55 PM58 °FPartly cloudy.16 mph78%30.20 "Hg10 mi
5:35 PM58 °FPassing clouds.15 mph77%30.21 "Hg10 mi
5:15 PM59 °FClear.15 mph77%30.20 "Hg10 mi
4:55 PM60 °FClear.20 mph76%30.19 "Hg10 mi
3:55 PM60 °FPassing clouds.16 mph78%30.18 "Hg10 mi
3:35 PM60 °FClear.16 mph77%30.18 "Hg10 mi
2:55 PM61 °FOvercast.23 mph76%30.18 "Hg10 mi
2:35 PM61 °FMostly cloudy.18 mph76%30.18 "Hg10 mi
2:15 PM61 °FBroken clouds.25 mph76%30.18 "Hg10 mi
1:55 PM61 °FMore clouds than sun.22 mph77%30.19 "Hg10 mi
1:35 PM60 °FBroken clouds.20 mph78%30.19 "Hg10 mi
1:15 PM59 °FBroken clouds.20 mph79%30.20 "Hg10 mi
12:55 PM59 °FBroken clouds.21 mph79%30.21 "Hg10 mi
12:35 PM56 °FMore clouds than sun.17 mph84%30.22 "Hg10 mi
12:15 PM56 °FOvercast.21 mph85%30.23 "Hg10 mi
11:55 AM54 °FRain. Mostly cloudy.16 mph85%30.24 "Hg10 mi
11:35 AM54 °FLight rain. Cloudy.17 mph86%30.25 "Hg10 mi
11:15 AM54 °FRain. Mostly cloudy.16 mph83%30.26 "Hg10 mi
Weather by CustomWeather, © 2015

See weather overviewHow to use our weather pages